McCook, NE

3:15 AM CDT on October 23, 2019 (GMT -0500)
McCook Municipal

Weather History for KMCK - September, 2019

Change the Weather History Date:

Friday, September 20, 2019

  Actual Average Record
Temperature  
Mean Temperature 78 °F 62 °F  
Max Temperature 89 °F 78 °F 98 °F (1937)
Min Temperature 66 °F 47 °F 25 °F (1918)
Cooling Degree Days 12    
Growing Degree Days 28 (Base 50)    
Moisture  
Dew Point 60 °F    
Average Humidity 60    
Maximum Humidity 90    
Minimum Humidity 35    
Precipitation  
Precipitation 0.00 in 0.05 in 2.20 in (1965)
Month to date precipitation 0.51 0.97  
Year to date precipitation 17.84 18.68  
Sea Level Pressure  
Sea Level Pressure 29.76 in    
Wind  
Wind Speed 11 mph ()    
Max Wind Speed 28 mph    
Max Gust Speed 40 mph    
Visibility 10.0 miles    
Events      
T = Trace of Precipitation, MM = Missing Value Source: Averaged Metar Reports

Daily Weather History Graph

Daily Weather History Graph

Search for Another Location

Airport or City:

Astronomy

Sep. 20, 2019 Rise Set
Actual Time 7:27 AM CDT 7:43 PM CDT
Civil Twilight 7:00 AM CDT 8:10 PM CDT
Nautical Twilight 6:28 AM CDT 8:41 PM CDT
Astronomical Twilight 5:56 AM CDT 9:14 PM CDT
Moon 11:33 PM CDT (9/20) 1:35 PM CDT (9/20)
Length of Visible Light 13h 09m
Length of Day
12h 15m
Waning Gibbous, 65% of the Moon is Illuminated
Sep 20
Waning Gibbous
Sep 21
Last Quarter
Sep 28
New
Oct 5
First Quarter
Oct 13
Full

Hourly Weather History & Observations

Time (CDT) Temp. Heat Index Dew Point Humidity Pressure Visibility Wind Dir Wind Speed Gust Speed Precip Events Conditions
12:53 AM 73.9 °F - 54.0 °F 50% 29.81 in 10.0 mi NE 8.1 mph - N/A   Clear
1:53 AM 72.0 °F - 55.9 °F 57% 29.83 in 10.0 mi SE 4.6 mph - N/A   Clear
2:53 AM 71.1 °F - 55.9 °F 59% 29.83 in 10.0 mi SSW 8.1 mph - N/A   Partly Cloudy
3:53 AM 70.0 °F - 57.9 °F 65% 29.82 in 10.0 mi SSE 4.6 mph - N/A   Clear
4:53 AM 68.0 °F - 59.0 °F 73% 29.81 in 10.0 mi SE 8.1 mph - N/A   Clear
5:53 AM 66.0 °F - 61.0 °F 84% 29.83 in 10.0 mi SE 6.9 mph - N/A   Clear
6:53 AM 66.9 °F - 63.0 °F 87% 29.83 in 10.0 mi SE 11.5 mph - N/A   Clear
7:53 AM 66.0 °F - 63.0 °F 90% 29.82 in 9.0 mi SE 9.2 mph - N/A   Clear
8:53 AM 68.0 °F - 64.0 °F 87% 29.83 in 10.0 mi SE 10.4 mph 21.9 mph N/A   Partly Cloudy
9:53 AM 70.0 °F - 64.0 °F 81% 29.84 in 10.0 mi SSE 8.1 mph - N/A   Partly Cloudy
10:53 AM 77.0 °F - 63.0 °F 62% 29.83 in 10.0 mi South 12.7 mph 27.6 mph N/A   Partly Cloudy
11:53 AM 79.0 °F - 62.1 °F 56% 29.80 in 10.0 mi South 20.7 mph 29.9 mph N/A   Scattered Clouds
12:53 PM 82.9 °F 83.2 °F 60.1 °F 46% 29.78 in 10.0 mi SSE 20.7 mph 33.4 mph N/A   Partly Cloudy
1:53 PM 87.1 °F 86.1 °F 57.9 °F 37% 29.74 in 10.0 mi South 23.0 mph 36.8 mph N/A   Clear
2:53 PM 84.9 °F 84.2 °F 57.9 °F 40% 29.71 in 10.0 mi SSE 21.9 mph 35.7 mph N/A   Clear
3:53 PM 88.0 °F 86.7 °F 57.0 °F 35% 29.68 in 10.0 mi South 27.6 mph 40.3 mph N/A   Clear
4:53 PM 87.1 °F 86.1 °F 57.9 °F 37% 29.68 in 10.0 mi South 19.6 mph 34.5 mph N/A   Clear
5:53 PM 84.9 °F 84.8 °F 60.1 °F 43% 29.68 in 10.0 mi SSE 19.6 mph 35.7 mph N/A   Clear
6:53 PM 82.9 °F 83.2 °F 60.1 °F 46% 29.68 in 10.0 mi SSE 17.3 mph 32.2 mph N/A   Clear
7:53 PM 79.0 °F - 61.0 °F 54% 29.69 in 10.0 mi SSE 19.6 mph 29.9 mph N/A   Clear
8:53 PM 77.0 °F - 62.1 °F 60% 29.70 in 10.0 mi SSE 15.0 mph 29.9 mph N/A   Clear
9:53 PM 75.9 °F - 62.1 °F 62% 29.70 in 10.0 mi SSE 21.9 mph 32.2 mph N/A   Clear
10:53 PM 73.9 °F - 62.1 °F 66% 29.69 in 10.0 mi SSE 17.3 mph 28.8 mph N/A   Clear
11:53 PM 73.9 °F - 64.0 °F 71% 29.68 in 10.0 mi SSE 18.4 mph 32.2 mph N/A   Clear